SCP
-0 -0 -0 -0 -0 -0 0 0 0 0 0 0 0 0 -0 0 0 0 0 0 0 -0 -0 0 0 0 0 -0 0 -0 0 0 0 -0 0 0 0 0 0 0 0 0 0 0
-0 -0 -0 -0 -0 -0 0 0 0 0 0 0 0 0 0 0 0 0 0 0 0 0 0 0 0 0 0 0 0 0 0 0 0 0 0 0 0 0 0 0 0 0 0 0
-0 -0 -0 -0 -0 -0 0 0 0 0 0 0 0 0 0 0 0 0 0 0 0 0 0 0 0 0 0 0 0 0 -0 0 0 0 0 0 0 0 0 0 0 0 0 0
-0 -0 -0 -0 -0 -0 0 0 0 0 0 0 0 0 0 0 0 0 0 0 0 0 0 0 0 0 0 0 0 0 0 0 0 0 0 0 0 0 0 0 0 0 0 0
-0 -0 -0 -0 -0 -0 0 0 0 0 0 0 0 0 0 0 0 0 0 0 0 0 0 0 0 0 0 0 0 0 0 0 0 0 0 0 0 0 0 0 0 0 0 0
-0 0 -0 -0 -0 0 0 0 0 0 0 0 0 0 0 0 0 0 0 0 0 0 0 0 0 0 0 0 0 0 0 0 0 0 0 0 0 0 0 0 0 0 0 0
0 0 0 0 0 0 0 0 0 0 0 0 0 0 0 0 0 0 0 0 0 0 0 0 0 0 0 0 0 0 0 0 0 0 0 0 0 0 0 0 0 0 0 0
0 0 0 0 0 0 0 0 0 0 0 0 0 0 0 0 0 0 0 0 0 0 0 0 0 0 0 0 0 0 0 0 0 0 0 0 0 0 0 0 0 0 0 0
0 0 0 0 0 0 0 0 0 0 0 0 0 0 0 0 0 0 0 0 0 0 0 0 0 0 0 0 0 0 0 0 0 0 0 0 0 0 0 0 0 0 0 0
0 0 0 0 0 0 0 0 0 0 0 0 0 0 0 0 0 0 0 0 0 0 0 0 0 0 0 0 0 0 0 0 0 0 0 0 0 0 0 0 0 0 0 0
0 0 0 0 0 0 0 0 0 0 0 0 0 0 0 0 0 0 0 0 0 0 0 0 0 0 0 0 0 0 0 0 0 0 0 0 0 0 0 0 0 0 0 0
0 0 0 0 0 0 0 0 0 0 0 0 0 0 0 0 0 0 0 0 0 0 0 0 0 0 0 0 0 0 0 0 0 0 0 0 0 0 0 0 0 0 0 0
0 0 0 0 0 0 0 0 0 0 0 0 0 0 0 0 0 0 0 0 0 0 0 0 0 0 0 0 0 0 0 0 0 0 0 0 0 0 0 0 0 0 0 0
0 0 0 0 0 0 0 0 0 0 0 0 0 0 0 0 0 0 0 0 0 0 0 0 0 0 0 0 0 0 0 0 0 0 0 0 0 0 0 0 0 0 0 0
0 0 0 0 0 0 0 0 0 0 0 0 0 0 0 0 0 0 0 0 0 0 0 0 0 0 0 0 0 0 0 0 0 0 0 0 0 0 0 0 0 0 0 0
0 0 0 0 0 0 0 0 0 0 0 0 0 0 0 0 0 0 0 0 0 0 0 0 0 0 0 0 0 0 0 0 0 0 0 0 0 0 0 0 0 0 0 0
0 0 0 0 0 0 0 0 0 0 0 0 0 0 0 0 0 0 0 0 0 0 0 0 0 0 0 0 0 0 0 0 0 0 0 0 0 0 0 0 0 0 0 0
0 0 0 0 0 0 0 0 0 0 0 0 0 0 0 0 0 0 0 0 0 0 0 0 0 0 0 0 0 0 0 0 0 0 0 0 0 0 0 0 0 0 0 0
0 0 0 0 0 0 0 0 0 0 0 0 0 0 0 0 0 0 0 0 0 0 0 0 0 0 0 0 0 0 0 0 0 0 0 0 0 0 0 0 0 0 0 0
0 0 0 0 0 0 0 0 0 0 0 0 0 0 0 0 0 0 0 0 0 0 0 0 0 0 0 0 0 0 0 0 0 0 0 0 0 0 0 0 0 0 0 0
0 0 0 0 0 0 0 0 0 0 0 0 0 0 0 0 0 0 0 0 0 0 0 0 0 0 0 0 0 0 0 0 0 0 0 0 0 0 0 0 0 0 0 0
0 0 0 0 0 0 0 0 0 0 0 0 0 0 0 0 0 0 0 0 0 0 0 0 0 0 0 0 0 0 0 0 0 0 0 0 0 0 0 0 0 0 0 0
0 0 0 0 0 0 0 0 0 0 0 0 0 0 0 0 0 0 0 0 0 0 0 0 0 0 0 0 0 0 0 0 0 0 0 0 0 0 0 0 0 0 0 0
0 0 0 0 0 0 0 0 0 0 0 0 0 0 0 0 0 0 0 0 0 0 0 0 0 0 0 0 0 0 0 0 0 0 0 0 0 0 0 0 0 0 0 0
0 0 0 0 0 0 0 0 0 0 0 0 0 0 0 0 0 0 0 0 0 0 0 0 0 0 0 0 0 0 0 0 0 0 0 0 0 0 0 0 0 0 0 0
0 0 0 0 0 0 0 0 0 0 0 0 0 0 0 0 0 0 0 0 0 0 0 0 0 0 0 -0 0 0 0 0 0 0 0 0 0 0 0 0 0 0 -0 -0
0 0 0 0 0 0 0 0 0 0 0 0 0 0 0 0 0 0 0 0 0 0 0 0 0 0 0 0 0 0 0 0 0 0 0 0 0 0 0 -0 -0 -0 -0 -0
Wind_Speed_500mb
56 54 55 58 64 53 22 4 6 23 24 6 2 4 9 10 16 28 17 10 9 17 15 9 11 17 8 13 23 18 8 9 3 6 3 2 5 6 9 9 5 2 6 12
54 53 52 53 60 53 29 6 10 30 15 6 4 9 10 13 9 9 5 15 13 8 14 10 11 8 6 16 11 16 14 4 4 13 12 10 11 5 9 9 6 10 10 11
50 51 48 48 54 46 26 4 5 6 8 2 7 4 10 9 15 10 6 6 10 8 7 8 9 6 11 10 10 16 15 6 10 12 9 6 2 2 5 7 6 7 12 14
47 46 46 42 47 41 22 11 3 3 3 7 4 3 7 10 9 5 17 12 11 3 8 8 9 4 6 12 7 8 9 8 2 3 5 3 4 5 4 12 8 10 6 10
44 42 41 38 39 38 15 9 7 6 4 8 2 7 7 7 6 4 11 16 12 16 10 2 12 8 3 3 10 7 6 4 5 4 3 2 7 8 2 2 4 10 6 5
40 39 35 33 31 31 14 16 9 6 2 4 4 6 11 7 3 10 10 10 9 15 4 4 7 8 8 9 8 5 5 11 7 10 7 8 7 7 3 3 3 3 3 3
36 33 30 26 25 27 22 25 10 6 5 1 1 9 6 12 10 4 8 11 7 5 6 3 3 7 8 3 5 8 11 9 5 6 5 3 12 7 8 10 2 5 6 6
31 29 25 21 16 17 12 19 15 7 5 3 7 20 10 12 12 11 9 16 6 2 3 8 10 11 10 10 13 6 4 11 5 8 8 5 3 10 9 10 7 5 11 11
28 26 21 18 13 9 7 11 18 8 4 4 9 4 8 3 8 9 8 14 13 4 9 7 7 5 4 10 12 11 11 10 8 7 9 13 13 5 8 10 5 15 19 19
25 24 19 16 12 8 8 9 11 9 8 6 10 4 2 3 4 1 7 11 7 11 6 5 6 6 7 3 4 5 6 5 11 5 7 11 7 4 20 10 13 19 19 23
20 22 19 15 12 8 8 15 13 10 10 23 13 6 5 4 6 4 5 5 6 7 7 5 5 5 4 1 5 4 7 7 6 5 4 9 4 9 11 10 20 21 20 20
18 19 19 15 13 10 8 10 16 17 17 17 26 31 28 26 15 7 5 3 3 4 8 2 6 2 2 6 5 2 3 9 6 10 9 9 11 6 10 35 34 22 22 17
16 16 16 14 13 11 10 10 13 15 15 24 22 9 14 27 25 16 4 3 3 4 6 10 4 4 7 6 9 3 2 4 6 5 5 5 9 18 21 28 22 19 14 10
15 14 13 12 12 12 11 9 12 9 8 6 7 3 5 15 22 17 14 6 6 7 4 5 5 4 10 6 5 6 7 6 9 1 7 2 11 18 21 20 17 14 11 10
16 14 12 11 12 11 10 10 11 8 5 6 17 17 8 16 15 20 17 15 10 6 3 4 6 5 5 2 3 6 13 13 9 11 27 13 23 20 16 15 13 10 9 11
17 14 13 12 11 9 7 5 11 9 4 7 7 7 8 10 18 25 26 15 8 5 5 4 4 3 2 4 5 13 16 14 14 5 23 14 21 21 18 18 18 18 18 18
18 15 13 13 11 10 10 1 4 6 5 5 12 16 1 1 21 27 20 15 6 5 5 4 4 5 4 5 6 10 7 8 13 10 28 15 26 22 26 24 21 19 18 19
18 15 13 11 9 9 11 13 8 5 5 5 1 9 8 3 9 15 14 11 12 7 4 4 5 5 1 5 20 31 26 17 18 28 22 6 18 27 24 22 21 18 17 18
17 13 9 6 7 7 8 10 10 7 7 4 4 4 5 9 4 7 9 9 3 4 4 5 7 0 7 15 18 13 19 39 28 23 27 17 17 21 17 15 16 20 24 28
15 11 8 7 10 12 11 6 5 7 8 9 7 6 6 7 3 5 6 3 4 3 6 7 4 7 28 28 24 16 7 23 21 25 27 21 17 13 12 14 20 26 26 25
16 11 6 8 14 9 6 5 3 4 4 10 9 18 4 1 4 4 2 5 1 3 7 6 2 6 7 16 10 14 23 27 26 18 11 7 3 8 15 18 19 23 30 36
18 10 12 11 8 4 3 3 3 5 8 8 9 10 18 6 7 4 2 5 3 7 2 4 4 7 5 19 29 33 32 30 25 15 7 2 4 11 17 24 30 33 37 41
17 7 7 5 5 5 10 10 5 5 8 10 12 5 8 8 8 6 4 5 8 2 3 6 7 5 15 26 31 29 22 17 13 10 7 10 14 19 24 29 35 41 45 46
7 8 1 7 6 7 8 6 5 8 5 3 10 8 5 5 5 3 6 4 3 0 3 7 3 12 24 21 19 16 15 11 11 13 15 14 16 22 29 33 37 40 43 43
5 5 7 9 11 13 13 18 12 13 13 2 11 8 4 4 6 3 5 4 5 7 4 3 10 24 23 21 18 13 10 11 14 14 14 19 26 31 31 32 34 35 36 38
4 6 4 7 3 5 8 8 3 14 9 12 5 5 4 3 5 4 8 5 6 4 5 4 19 22 20 18 13 11 7 9 13 14 18 25 25 28 31 28 29 32 36 37
3 4 10 12 10 11 7 8 26 14 11 5 7 6 4 4 3 3 6 7 6 13 13 15 16 14 11 10 8 6 1 8 12 11 17 17 20 22 27 31 33 38 40 39
Wind_Direction_500mb
346 349 351 350 351 356 4 60 69 167 154 82 27 195 213 307 283 310 245 178 194 182 153 153 213 205 238 137 141 164 179 139 174 201 99 195 20 106 115 112 239 69 152 272
342 348 352 351 353 356 3 46 91 150 165 147 267 287 281 251 292 286 272 208 197 183 151 119 189 185 18 158 139 165 182 24 51 353 358 12 66 11 95 110 91 202 146 263
338 344 351 353 352 357 360 9 80 155 217 171 141 347 277 286 290 241 327 313 74 99 77 22 154 110 37 51 80 103 107 104 148 187 203 169 115 270 171 128 126 188 225 272
335 339 348 353 354 358 5 16 57 118 236 280 241 148 278 300 293 349 16 38 37 47 98 60 61 59 58 36 27 63 94 123 195 196 262 210 225 257 212 188 210 171 259 232
332 334 342 352 358 2 20 28 18 350 271 298 210 178 243 236 276 329 351 100 49 72 83 170 163 136 68 174 20 64 14 163 112 278 182 289 285 285 237 182 139 266 300 292
326 329 335 347 360 11 31 16 348 331 295 341 128 205 264 263 107 42 103 145 97 61 45 34 62 76 135 160 153 132 75 129 98 254 9 26 343 238 225 149 121 260 243 276
319 323 327 339 355 11 15 13 355 345 278 336 300 320 302 8 338 139 52 52 73 23 33 81 32 70 21 224 70 104 133 101 100 201 45 227 250 287 189 137 164 20 106 125
313 317 318 324 341 359 357 7 12 339 292 301 335 350 339 353 36 46 76 46 20 341 53 62 31 349 358 358 35 10 92 126 120 151 185 278 44 247 198 178 247 150 140 139
310 312 310 308 315 341 324 335 1 338 329 270 331 323 351 13 350 4 23 40 42 93 69 71 122 218 249 317 345 73 76 69 127 142 158 202 229 193 196 129 297 182 180 174
308 309 304 297 294 304 308 265 344 343 295 305 349 354 304 7 37 98 330 345 20 41 75 84 148 220 207 256 292 321 -0 15 171 157 200 286 240 184 158 105 233 175 187 182
302 305 302 292 280 277 268 255 276 334 298 291 278 276 320 354 27 107 350 32 354 47 77 146 187 136 237 12 246 216 186 155 196 104 128 239 49 141 160 203 146 165 180 192
295 302 301 291 270 265 264 259 260 290 277 277 287 280 267 260 274 309 345 144 200 162 97 70 93 146 82 157 245 2 253 181 191 169 219 288 308 263 165 154 150 162 178 189
290 296 300 291 268 261 259 265 266 293 285 287 277 264 255 237 235 218 257 245 162 104 87 138 136 201 130 177 240 247 289 147 107 80 305 337 131 133 146 156 152 149 149 161
283 292 299 289 272 268 264 267 275 288 290 295 269 281 134 164 175 198 221 281 139 122 85 101 131 180 187 209 225 178 202 138 137 286 281 168 162 143 135 136 144 159 183 218
272 284 292 286 275 271 274 266 242 258 278 277 293 305 198 199 204 203 202 194 194 186 154 100 223 196 139 44 60 260 195 182 163 218 203 181 186 173 174 183 195 218 231 230
266 272 277 278 271 256 245 237 223 217 330 304 319 284 241 209 204 201 192 200 215 184 180 202 238 233 193 135 212 264 231 219 205 218 191 181 175 194 206 220 234 243 250 261
258 259 262 269 263 232 211 218 149 191 261 278 307 319 210 230 189 185 188 188 178 179 173 207 235 180 196 120 204 304 258 205 194 175 164 178 195 208 213 220 232 238 251 265
250 249 252 259 254 231 224 220 227 249 235 261 235 275 331 122 168 170 175 175 181 179 187 209 202 150 134 264 248 243 229 215 210 197 187 215 225 219 208 214 231 237 255 277
234 232 232 228 203 183 178 185 196 225 244 262 178 199 246 360 102 128 141 169 100 192 187 234 147 344 223 228 254 263 238 230 221 208 215 239 223 209 218 238 252 270 286 292
203 189 170 181 167 155 153 172 212 218 218 226 225 219 266 341 59 73 124 93 137 158 250 138 123 254 252 261 264 249 259 218 214 214 221 224 217 218 233 263 272 285 291 292
170 170 162 158 158 167 184 201 198 206 269 218 235 211 237 271 97 164 146 155 136 112 260 140 298 280 292 343 333 274 255 237 231 231 195 170 225 279 288 291 291 292 294 296
171 148 131 146 180 167 140 234 287 198 230 216 195 221 206 211 210 123 152 123 63 225 140 92 263 258 93 99 93 93 102 115 119 119 124 157 282 303 304 300 299 302 304 304
147 163 156 179 172 159 186 195 232 244 211 210 192 186 174 162 184 95 106 126 219 126 90 227 226 184 133 120 113 103 96 90 78 68 28 352 333 316 310 310 310 309 309 311
160 162 208 180 201 235 203 202 208 234 230 235 200 154 177 145 104 135 112 220 99 164 211 235 299 141 139 129 116 119 100 73 43 18 6 356 340 329 323 319 319 320 321 324
157 157 210 217 242 265 270 279 257 261 260 298 143 106 151 35 99 26 91 132 242 212 230 243 160 147 144 148 145 111 89 59 34 21 7 353 343 338 337 334 333 331 330 332
212 218 266 246 297 310 33 57 61 8 177 153 100 98 86 81 113 127 204 171 219 230 230 213 161 171 161 145 149 134 90 42 17 5 359 352 358 4 2 360 4 5 2 356
222 260 250 265 282 263 339 4 13 22 153 117 134 183 158 101 96 226 183 195 192 171 146 125 143 151 154 156 168 176 69 358 353 360 4 14 20 28 27 30 31 30 26 23
Wind_Speed_850mb
56 54 55 58 64 53 22 4 6 23 24 6 2 4 9 10 16 28 17 10 9 17 15 9 11 17 8 13 23 18 8 9 3 6 3 2 5 6 9 9 5 2 6 12
54 53 52 53 60 53 29 6 10 30 15 6 4 9 10 13 9 9 5 15 13 8 14 10 11 8 6 16 11 16 14 4 4 13 12 10 11 5 9 9 6 10 10 11
50 51 48 48 54 46 26 4 5 6 8 2 7 4 10 9 15 10 6 6 10 8 7 8 9 6 11 10 10 16 15 6 10 12 9 6 2 2 5 7 6 7 12 14
47 46 46 42 47 41 22 11 3 3 3 7 4 3 7 10 9 5 17 12 11 3 8 8 9 4 6 12 7 8 9 8 2 3 5 3 4 5 4 12 8 10 6 10
44 42 41 38 39 38 15 9 7 6 4 8 2 7 7 7 6 4 11 16 12 16 10 2 12 8 3 3 10 7 6 4 5 4 3 2 7 8 2 2 4 10 6 5
40 39 35 33 31 31 14 16 9 6 2 4 4 6 11 7 3 10 10 10 9 15 4 4 7 8 8 9 8 5 5 11 7 10 7 8 7 7 3 3 3 3 3 3
36 33 30 26 25 27 22 25 10 6 5 1 1 9 6 12 10 4 8 11 7 5 6 3 3 7 8 3 5 8 11 9 5 6 5 3 12 7 8 10 2 5 6 6
31 29 25 21 16 17 12 19 15 7 5 3 7 20 10 12 12 11 9 16 6 2 3 8 10 11 10 10 13 6 4 11 5 8 8 5 3 10 9 10 7 5 11 11
28 26 21 18 13 9 7 11 18 8 4 4 9 4 8 3 8 9 8 14 13 4 9 7 7 5 4 10 12 11 11 10 8 7 9 13 13 5 8 10 5 15 19 19
25 24 19 16 12 8 8 9 11 9 8 6 10 4 2 3 4 1 7 11 7 11 6 5 6 6 7 3 4 5 6 5 11 5 7 11 7 4 20 10 13 19 19 23
20 22 19 15 12 8 8 15 13 10 10 23 13 6 5 4 6 4 5 5 6 7 7 5 5 5 4 1 5 4 7 7 6 5 4 9 4 9 11 10 20 21 20 20
18 19 19 15 13 10 8 10 16 17 17 17 26 31 28 26 15 7 5 3 3 4 8 2 6 2 2 6 5 2 3 9 6 10 9 9 11 6 10 35 34 22 22 17
16 16 16 14 13 11 10 10 13 15 15 24 22 9 14 27 25 16 4 3 3 4 6 10 4 4 7 6 9 3 2 4 6 5 5 5 9 18 21 28 22 19 14 10
15 14 13 12 12 12 11 9 12 9 8 6 7 3 5 15 22 17 14 6 6 7 4 5 5 4 10 6 5 6 7 6 9 1 7 2 11 18 21 20 17 14 11 10
16 14 12 11 12 11 10 10 11 8 5 6 17 17 8 16 15 20 17 15 10 6 3 4 6 5 5 2 3 6 13 13 9 11 27 13 23 20 16 15 13 10 9 11
17 14 13 12 11 9 7 5 11 9 4 7 7 7 8 10 18 25 26 15 8 5 5 4 4 3 2 4 5 13 16 14 14 5 23 14 21 21 18 18 18 18 18 18
18 15 13 13 11 10 10 1 4 6 5 5 12 16 1 1 21 27 20 15 6 5 5 4 4 5 4 5 6 10 7 8 13 10 28 15 26 22 26 24 21 19 18 19
18 15 13 11 9 9 11 13 8 5 5 5 1 9 8 3 9 15 14 11 12 7 4 4 5 5 1 5 20 31 26 17 18 28 22 6 18 27 24 22 21 18 17 18
17 13 9 6 7 7 8 10 10 7 7 4 4 4 5 9 4 7 9 9 3 4 4 5 7 0 7 15 18 13 19 39 28 23 27 17 17 21 17 15 16 20 24 28
15 11 8 7 10 12 11 6 5 7 8 9 7 6 6 7 3 5 6 3 4 3 6 7 4 7 28 28 24 16 7 23 21 25 27 21 17 13 12 14 20 26 26 25
16 11 6 8 14 9 6 5 3 4 4 10 9 18 4 1 4 4 2 5 1 3 7 6 2 6 7 16 10 14 23 27 26 18 11 7 3 8 15 18 19 23 30 36
18 10 12 11 8 4 3 3 3 5 8 8 9 10 18 6 7 4 2 5 3 7 2 4 4 7 5 19 29 33 32 30 25 15 7 2 4 11 17 24 30 33 37 41
17 7 7 5 5 5 10 10 5 5 8 10 12 5 8 8 8 6 4 5 8 2 3 6 7 5 15 26 31 29 22 17 13 10 7 10 14 19 24 29 35 41 45 46
7 8 1 7 6 7 8 6 5 8 5 3 10 8 5 5 5 3 6 4 3 0 3 7 3 12 24 21 19 16 15 11 11 13 15 14 16 22 29 33 37 40 43 43
5 5 7 9 11 13 13 18 12 13 13 2 11 8 4 4 6 3 5 4 5 7 4 3 10 24 23 21 18 13 10 11 14 14 14 19 26 31 31 32 34 35 36 38
4 6 4 7 3 5 8 8 3 14 9 12 5 5 4 3 5 4 8 5 6 4 5 4 19 22 20 18 13 11 7 9 13 14 18 25 25 28 31 28 29 32 36 37
3 4 10 12 10 11 7 8 26 14 11 5 7 6 4 4 3 3 6 7 6 13 13 15 16 14 11 10 8 6 1 8 12 11 17 17 20 22 27 31 33 38 40 39
Wind_Direction_850mb
346 349 351 350 351 356 4 60 69 167 154 82 27 195 213 307 283 310 245 178 194 182 153 153 213 205 238 137 141 164 179 139 174 201 99 195 20 106 115 112 239 69 152 272
342 348 352 351 353 356 3 46 91 150 165 147 267 287 281 251 292 286 272 208 197 183 151 119 189 185 18 158 139 165 182 24 51 353 358 12 66 11 95 110 91 202 146 263
338 344 351 353 352 357 360 9 80 155 217 171 141 347 277 286 290 241 327 313 74 99 77 22 154 110 37 51 80 103 107 104 148 187 203 169 115 270 171 128 126 188 225 272
335 339 348 353 354 358 5 16 57 118 236 280 241 148 278 300 293 349 16 38 37 47 98 60 61 59 58 36 27 63 94 123 195 196 262 210 225 257 212 188 210 171 259 232
332 334 342 352 358 2 20 28 18 350 271 298 210 178 243 236 276 329 351 100 49 72 83 170 163 136 68 174 20 64 14 163 112 278 182 289 285 285 237 182 139 266 300 292
326 329 335 347 360 11 31 16 348 331 295 341 128 205 264 263 107 42 103 145 97 61 45 34 62 76 135 160 153 132 75 129 98 254 9 26 343 238 225 149 121 260 243 276
319 323 327 339 355 11 15 13 355 345 278 336 300 320 302 8 338 139 52 52 73 23 33 81 32 70 21 224 70 104 133 101 100 201 45 227 250 287 189 137 164 20 106 125
313 317 318 324 341 359 357 7 12 339 292 301 335 350 339 353 36 46 76 46 20 341 53 62 31 349 358 358 35 10 92 126 120 151 185 278 44 247 198 178 247 150 140 139
310 312 310 308 315 341 324 335 1 338 329 270 331 323 351 13 350 4 23 40 42 93 69 71 122 218 249 317 345 73 76 69 127 142 158 202 229 193 196 129 297 182 180 174
308 309 304 297 294 304 308 265 344 343 295 305 349 354 304 7 37 98 330 345 20 41 75 84 148 220 207 256 292 321 -0 15 171 157 200 286 240 184 158 105 233 175 187 182
302 305 302 292 280 277 268 255 276 334 298 291 278 276 320 354 27 107 350 32 354 47 77 146 187 136 237 12 246 216 186 155 196 104 128 239 49 141 160 203 146 165 180 192
295 302 301 291 270 265 264 259 260 290 277 277 287 280 267 260 274 309 345 144 200 162 97 70 93 146 82 157 245 2 253 181 191 169 219 288 308 263 165 154 150 162 178 189
290 296 300 291 268 261 259 265 266 293 285 287 277 264 255 237 235 218 257 245 162 104 87 138 136 201 130 177 240 247 289 147 107 80 305 337 131 133 146 156 152 149 149 161
283 292 299 289 272 268 264 267 275 288 290 295 269 281 134 164 175 198 221 281 139 122 85 101 131 180 187 209 225 178 202 138 137 286 281 168 162 143 135 136 144 159 183 218
272 284 292 286 275 271 274 266 242 258 278 277 293 305 198 199 204 203 202 194 194 186 154 100 223 196 139 44 60 260 195 182 163 218 203 181 186 173 174 183 195 218 231 230
266 272 277 278 271 256 245 237 223 217 330 304 319 284 241 209 204 201 192 200 215 184 180 202 238 233 193 135 212 264 231 219 205 218 191 181 175 194 206 220 234 243 250 261
258 259 262 269 263 232 211 218 149 191 261 278 307 319 210 230 189 185 188 188 178 179 173 207 235 180 196 120 204 304 258 205 194 175 164 178 195 208 213 220 232 238 251 265
250 249 252 259 254 231 224 220 227 249 235 261 235 275 331 122 168 170 175 175 181 179 187 209 202 150 134 264 248 243 229 215 210 197 187 215 225 219 208 214 231 237 255 277
234 232 232 228 203 183 178 185 196 225 244 262 178 199 246 360 102 128 141 169 100 192 187 234 147 344 223 228 254 263 238 230 221 208 215 239 223 209 218 238 252 270 286 292
203 189 170 181 167 155 153 172 212 218 218 226 225 219 266 341 59 73 124 93 137 158 250 138 123 254 252 261 264 249 259 218 214 214 221 224 217 218 233 263 272 285 291 292
170 170 162 158 158 167 184 201 198 206 269 218 235 211 237 271 97 164 146 155 136 112 260 140 298 280 292 343 333 274 255 237 231 231 195 170 225 279 288 291 291 292 294 296
171 148 131 146 180 167 140 234 287 198 230 216 195 221 206 211 210 123 152 123 63 225 140 92 263 258 93 99 93 93 102 115 119 119 124 157 282 303 304 300 299 302 304 304
147 163 156 179 172 159 186 195 232 244 211 210 192 186 174 162 184 95 106 126 219 126 90 227 226 184 133 120 113 103 96 90 78 68 28 352 333 316 310 310 310 309 309 311
160 162 208 180 201 235 203 202 208 234 230 235 200 154 177 145 104 135 112 220 99 164 211 235 299 141 139 129 116 119 100 73 43 18 6 356 340 329 323 319 319 320 321 324
157 157 210 217 242 265 270 279 257 261 260 298 143 106 151 35 99 26 91 132 242 212 230 243 160 147 144 148 145 111 89 59 34 21 7 353 343 338 337 334 333 331 330 332
212 218 266 246 297 310 33 57 61 8 177 153 100 98 86 81 113 127 204 171 219 230 230 213 161 171 161 145 149 134 90 42 17 5 359 352 358 4 2 360 4 5 2 356
222 260 250 265 282 263 339 4 13 22 153 117 134 183 158 101 96 226 183 195 192 171 146 125 143 151 154 156 168 176 69 358 353 360 4 14 20 28 27 30 31 30 26 23